Location: Falniów
(50.3639°N, 19.9642°E)
Time: 20:24:51
(UTC+00:00)

SL-08 R/B - Pass Details

Date: 27 April 2026
Orbit: 667 x 728 km, 98.5° (Epoch: 13 May)

Event Time Altitude Azimuth Distance (km) Brightness Sun altitude
Rises 20:17:29 0° 8° (N) 3,164 7.4 -18.6°
Reaches altitude 10° 20:19:57 10° 358° (N) 2,238 6.7 -18.9°
Maximum altitude 20:24:17 32° 297° (WNW) 1,236 5.1 -19.3°
Drops below altitude 10° 20:28:34 10° 235° (SW) 2,211 5.9 -19.6°
Sets 20:31:00 0° 225° (SW) 3,121 6.5 -19.9°
